Hourly Data Report for October 23, 2020

SAINT JOHN A
NEW BRUNSWICK
Current Station Operator: NAVCAN

45°18'58.000" N
65°53'24.000" W
108.80 m
8104901
71609
YSJ

Download Data

Hourly Data (October 2020)
Hourly Data Report for October 23, 2020
TIME
LST
Temp Definition
°C
Dew Point Definition
°C
Rel Hum Definition
%
Precip. Amount Definition
mm

Wind Dir Definition
10's deg

Wind Spd Definition
km/h
Visibility Definition
km
Stn Press Definition
kPa
Hmdx Definition


Wind Chill Definition


Weather Definition


00:00 9.2 6.3 82 LegendMM 1 11 24.1 101.38     LegendNANA
01:00 9.2 6.0 81 LegendMM 3 9 24.1 101.37     LegendNANA
02:00 8.6 6.3 85 LegendMM 9 5 24.1 101.33     Cloudy
03:00 6.3 5.1 92 LegendMM 36 6 24.1 101.37     LegendNANA
04:00 6.2 5.3 94 LegendMM 33 4 24.1 101.39     LegendNANA
05:00 6.4 4.6 88 LegendMM 6 7 24.1 101.38     Mostly Cloudy
06:00 7.0 5.6 91 LegendMM 9 7 24.1 101.44     LegendNANA
07:00 8.2 5.3 82 LegendMM 10 10 24.1 101.46     LegendNANA
08:00 9.2 4.0 70 LegendMM 10 20 24.1 101.45     Mostly Cloudy
09:00 10.2 5.8 74 LegendMM 12 20 24.1 101.47     LegendNANA
10:00 10.4 4.6 67 LegendMM 13 23 24.1 101.48     LegendNANA
11:00 10.9 3.4 60 LegendMM 11 21 24.1 101.39     Mostly Cloudy
12:00 11.4 4.6 63 LegendMM 13 17 24.1 101.32     LegendNANA
13:00 11.8 5.3 64 LegendMM 13 15 24.1 101.23     LegendNANA
14:00 11.7 5.1 64 LegendMM 11 16 24.1 101.16     Mostly Cloudy
15:00 11.6 6.3 70 LegendMM 10 10 24.1 101.15     LegendNANA
16:00 11.6 6.4 71 LegendMM 13 10 24.1 101.10     LegendNANA
17:00 11.2 6.8 74 LegendMM 10 10 24.1 101.05     Cloudy
18:00 11.1 7.7 79 LegendMM 11 12 24.1 101.00     LegendNANA
19:00 10.3 8.4 88 LegendMM 11 13 24.1 100.97     LegendNANA
20:00 10.7 9.0 89 LegendMM 16 13 24.1 100.90     Mostly Cloudy
21:00 10.3 9.1 92 LegendMM 16 14 24.1 100.84     LegendNANA
22:00 10.5 9.2 92 LegendMM 16 13 24.1 100.83     LegendNANA
23:00 10.5 8.8 89 LegendMM 16 17 24.1 100.77     Cloudy

Notes on Data Quality.

Legend

  • E = Estimated
  • M = Missing
  • NA = Not Available*
  • [empty] = Indicates an unobserved value
Date modified: